IGO0524 VEAT-VEIM

Flight info

Callsign IGO0524
Flight time 0h 34m
Altitude 23000
Route DOXAG R472 AAT W54 MEPAR DCT POREG
Aircraft A320/M-SDE3FGHIRWY/LB1

Departure

Time 2026-05-08 11:54
Airport Agartala - Maharaja Bir Bikram Airport (VEAT)

Arrival

Time 2026-05-08 12:29
Airport Bir Tikendrajit International Airport (VEIM)
Time Latitude Longitude Altitude Speed Heading
2026-05-08 11:35 23.88683 91.24350 64 ft 0 kts 93°
2026-05-08 11:46 23.88683 91.24337 59 ft 2 kts 87°
2026-05-08 11:46 23.88682 91.24319 61 ft 2 kts 78°
2026-05-08 11:47 23.88678 91.24302 56 ft 2 kts 46°
2026-05-08 11:47 23.88664 91.24293 59 ft 2 kts
2026-05-08 11:47 23.88656 91.24292 58 ft 0 kts
2026-05-08 11:49 23.88658 91.24292 58 ft 1 kts
2026-05-08 11:49 23.88676 91.24286 58 ft 4 kts 329°
2026-05-08 11:50 23.88690 91.24247 64 ft 7 kts 278°
2026-05-08 11:50 23.88696 91.24178 63 ft 11 kts 275°
2026-05-08 11:50 23.88680 91.24088 55 ft 13 kts 211°
2026-05-08 11:50 23.88579 91.24074 61 ft 16 kts 185°
2026-05-08 11:51 23.88455 91.24061 58 ft 18 kts 182°
2026-05-08 11:51 23.88359 91.24058 58 ft 14 kts 182°
2026-05-08 11:51 23.88253 91.24049 61 ft 16 kts 186°
2026-05-08 11:51 23.88128 91.24039 59 ft 20 kts 183°
2026-05-08 11:52 23.87981 91.24029 61 ft 22 kts 183°
2026-05-08 11:52 23.87839 91.24015 63 ft 18 kts 184°
2026-05-08 11:52 23.87752 91.24040 61 ft 11 kts 138°
2026-05-08 11:52 23.87714 91.24028 64 ft 4 kts 292°
2026-05-08 11:53 23.87743 91.24006 57 ft 6 kts 354°
2026-05-08 11:53 23.87765 91.24009 57 ft 1 kts
2026-05-08 11:53 23.87869 91.24015 61 ft 39 kts
2026-05-08 11:53 23.88407 91.24059 57 ft 112 kts
2026-05-08 11:54 23.89366 91.24136 70 ft 162 kts
2026-05-08 11:54 23.90455 91.24234 860 ft 148 kts
2026-05-08 11:54 23.91453 91.24335 1559 ft 146 kts
2026-05-08 11:54 23.92490 91.24714 1767 ft 176 kts 33°
2026-05-08 11:55 23.93572 91.25597 1806 ft 212 kts 36°
2026-05-08 11:55 23.94829 91.26643 1802 ft 246 kts 36°
2026-05-08 11:55 23.96233 91.27844 2081 ft 263 kts 41°
2026-05-08 11:55 23.97253 91.29501 3053 ft 269 kts 70°
2026-05-08 11:56 23.97512 91.31534 4027 ft 273 kts 86°
2026-05-08 11:56 23.97610 91.33627 4988 ft 278 kts 87°
2026-05-08 11:56 23.97708 91.35762 5897 ft 284 kts 87°
2026-05-08 11:56 23.97809 91.37936 6778 ft 288 kts 87°
2026-05-08 11:57 23.97913 91.40139 7653 ft 293 kts 87°
2026-05-08 11:57 23.98019 91.42381 8532 ft 298 kts 87°
2026-05-08 11:57 23.98126 91.44657 9412 ft 302 kts 87°
2026-05-08 11:57 23.98237 91.46980 10101 ft 314 kts 87°
2026-05-08 11:58 23.98355 91.49448 10424 ft 335 kts 87°
2026-05-08 11:58 23.98480 91.52033 11000 ft 345 kts 87°
2026-05-08 11:58 23.98605 91.54676 11702 ft 351 kts 88°
2026-05-08 11:59 23.98861 91.60076 13146 ft 360 kts 88°
2026-05-08 11:59 23.98989 91.62833 13825 ft 365 kts 88°
2026-05-08 11:59 23.99118 91.65620 14439 ft 370 kts 88°
2026-05-08 11:59 23.99249 91.68435 15035 ft 374 kts 88°
2026-05-08 12:00 23.99381 91.71265 15621 ft 379 kts 88°
2026-05-08 12:00 23.99516 91.74159 16216 ft 383 kts 88°
2026-05-08 12:00 23.99652 91.77087 16825 ft 387 kts 88°
2026-05-08 12:00 23.99793 91.80088 17413 ft 392 kts 89°
2026-05-08 12:01 23.99931 91.83047 18000 ft 397 kts 89°
2026-05-08 12:01 24.00266 91.86095 18518 ft 403 kts 79°
2026-05-08 12:01 24.01083 91.89009 19002 ft 408 kts 68°
2026-05-08 12:01 24.02197 91.91931 19490 ft 413 kts 68°
2026-05-08 12:02 24.03294 91.94802 19982 ft 417 kts 68°
2026-05-08 12:02 24.04432 91.97786 20487 ft 421 kts 68°
2026-05-08 12:02 24.05547 92.00720 20970 ft 426 kts 68°
2026-05-08 12:02 24.06688 92.03725 21456 ft 430 kts 68°
2026-05-08 12:03 24.07843 92.06767 21929 ft 435 kts 68°
2026-05-08 12:03 24.09007 92.09839 22392 ft 439 kts 68°
2026-05-08 12:03 24.10180 92.12940 22776 ft 443 kts 68°
2026-05-08 12:03 24.11356 92.16053 22882 ft 438 kts 68°
2026-05-08 12:04 24.12502 92.19083 22892 ft 425 kts 68°
2026-05-08 12:04 24.13629 92.22064 22889 ft 422 kts 68°
2026-05-08 12:04 24.14750 92.25032 22886 ft 421 kts 68°
2026-05-08 12:04 24.15866 92.27992 22888 ft 421 kts 68°
2026-05-08 12:05 24.16983 92.30956 22892 ft 421 kts 68°
2026-05-08 12:05 24.18100 92.33916 22900 ft 421 kts 68°
2026-05-08 12:05 24.19218 92.36875 22902 ft 421 kts 68°
2026-05-08 12:05 24.20335 92.39837 22903 ft 421 kts 68°
2026-05-08 12:06 24.21450 92.42805 22888 ft 420 kts 68°
2026-05-08 12:06 24.22560 92.45758 22889 ft 420 kts 68°
2026-05-08 12:06 24.23674 92.48725 22897 ft 421 kts 68°
2026-05-08 12:06 24.24786 92.51689 22898 ft 421 kts 68°
2026-05-08 12:07 24.25897 92.54657 22902 ft 421 kts 68°
2026-05-08 12:07 24.27010 92.57629 22905 ft 422 kts 68°
2026-05-08 12:07 24.28122 92.60602 22906 ft 422 kts 68°
2026-05-08 12:07 24.29236 92.63578 22908 ft 422 kts 68°
2026-05-08 12:08 24.30350 92.66546 22909 ft 422 kts 68°
2026-05-08 12:08 24.31468 92.69529 22917 ft 422 kts 68°
2026-05-08 12:08 24.32580 92.72509 22922 ft 422 kts 68°
2026-05-08 12:08 24.33689 92.75492 22917 ft 422 kts 68°
2026-05-08 12:09 24.34798 92.78471 22925 ft 422 kts 67°
2026-05-08 12:09 24.36137 92.81340 22923 ft 422 kts 60°
2026-05-08 12:09 24.37564 92.84150 22926 ft 423 kts 60°
2026-05-08 12:09 24.38994 92.86966 22926 ft 423 kts 60°
2026-05-08 12:10 24.40424 92.89784 22928 ft 423 kts 60°
2026-05-08 12:10 24.41852 92.92603 22930 ft 423 kts 60°
2026-05-08 12:10 24.43281 92.95429 22935 ft 423 kts 60°
2026-05-08 12:10 24.44706 92.98249 22936 ft 423 kts 60°
2026-05-08 12:11 24.46132 93.01070 22938 ft 422 kts 60°
2026-05-08 12:11 24.47553 93.03891 22942 ft 422 kts 60°
2026-05-08 12:11 24.48951 93.06673 22940 ft 422 kts 60°
2026-05-08 12:11 24.50370 93.09501 22944 ft 423 kts 60°
2026-05-08 12:12 24.51788 93.12327 22947 ft 423 kts 60°
2026-05-08 12:12 24.53204 93.15150 22931 ft 421 kts 60°
2026-05-08 12:12 24.54613 93.17952 22920 ft 420 kts 60°
2026-05-08 12:12 24.56032 93.20768 22914 ft 422 kts 60°
2026-05-08 12:13 24.57468 93.23615 22284 ft 430 kts 60°
2026-05-08 12:13 24.58907 93.26478 21921 ft 424 kts 60°
2026-05-08 12:13 24.60311 93.29275 21282 ft 415 kts 60°
2026-05-08 12:13 24.61683 93.32009 20758 ft 401 kts 60°
2026-05-08 12:14 24.63008 93.34651 20288 ft 388 kts 60°
2026-05-08 12:14 24.64290 93.37211 19837 ft 377 kts 60°
2026-05-08 12:14 24.65537 93.39697 19381 ft 366 kts 60°
2026-05-08 12:14 24.66749 93.42120 18945 ft 357 kts 60°
2026-05-08 12:15 24.67929 93.44481 18523 ft 348 kts 60°
2026-05-08 12:15 24.69084 93.46794 18083 ft 342 kts 60°
2026-05-08 12:15 24.70221 93.49065 17661 ft 334 kts 60°
2026-05-08 12:15 24.71334 93.51290 17249 ft 331 kts 60°
2026-05-08 12:16 24.72440 93.53500 16851 ft 328 kts 60°
2026-05-08 12:16 24.73533 93.55691 16455 ft 325 kts 60°
2026-05-08 12:16 24.74617 93.57873 16054 ft 325 kts 60°
2026-05-08 12:16 24.75704 93.60055 15659 ft 326 kts 60°
2026-05-08 12:17 24.76802 93.62255 15272 ft 329 kts 60°
2026-05-08 12:17 24.77906 93.64469 14875 ft 331 kts 60°
2026-05-08 12:17 24.79015 93.66697 14476 ft 332 kts 60°
2026-05-08 12:17 24.80124 93.68932 14065 ft 334 kts 60°
2026-05-08 12:18 24.81243 93.71185 13638 ft 336 kts 60°
2026-05-08 12:18 24.82364 93.73449 13205 ft 337 kts 61°
2026-05-08 12:18 24.83486 93.75716 12801 ft 337 kts 61°
2026-05-08 12:18 24.84605 93.77976 12378 ft 337 kts 61°
2026-05-08 12:19 24.85726 93.80237 12050 ft 333 kts 61°
2026-05-08 12:19 24.86817 93.82433 11902 ft 323 kts 61°
2026-05-08 12:19 24.87889 93.84587 11644 ft 319 kts 61°
2026-05-08 12:19 24.88949 93.86718 11222 ft 319 kts 61°
2026-05-08 12:20 24.90045 93.88924 10458 ft 334 kts 61°
2026-05-08 12:20 24.91163 93.91177 9984 ft 335 kts 62°
2026-05-08 12:20 24.92279 93.93433 9533 ft 335 kts 61°
2026-05-08 12:20 24.93388 93.95676 9111 ft 332 kts 62°
2026-05-08 12:21 24.94489 93.97903 8687 ft 328 kts 62°
2026-05-08 12:21 24.95555 94.00064 8287 ft 313 kts 62°
2026-05-08 12:21 24.96561 94.02101 7904 ft 301 kts 61°
2026-05-08 12:21 24.97512 94.04108 7530 ft 290 kts 69°
2026-05-08 12:22 24.97730 94.06215 7302 ft 272 kts 103°
2026-05-08 12:22 24.96865 94.07977 7107 ft 252 kts 141°
2026-05-08 12:22 24.95389 94.08705 6950 ft 229 kts 180°
2026-05-08 12:22 24.93961 94.08231 6818 ft 212 kts 223°
2026-05-08 12:23 24.93263 94.06885 6704 ft 201 kts 259°
2026-05-08 12:23 24.93014 94.05383 6586 ft 198 kts 256°
2026-05-08 12:23 24.92352 94.04081 6451 ft 197 kts 232°
2026-05-08 12:23 24.91588 94.02835 6322 ft 196 kts 242°
2026-05-08 12:24 24.90951 94.01507 6157 ft 195 kts 244°
2026-05-08 12:24 24.90359 94.00218 5997 ft 183 kts 244°
2026-05-08 12:24 24.89679 93.99099 5913 ft 171 kts 224°
2026-05-08 12:24 24.88721 93.98362 5700 ft 170 kts 214°
2026-05-08 12:25 24.87716 93.97678 5412 ft 168 kts 214°
2026-05-08 12:25 24.86745 93.97030 5152 ft 159 kts 214°
2026-05-08 12:25 24.85817 93.96413 4901 ft 153 kts 213°
2026-05-08 12:25 24.84907 93.95809 4680 ft 153 kts 214°
2026-05-08 12:26 24.84004 93.95210 4444 ft 151 kts 213°
2026-05-08 12:26 24.83117 93.94621 4231 ft 148 kts 213°
2026-05-08 12:26 24.82228 93.94034 3984 ft 150 kts 213°
2026-05-08 12:26 24.81343 93.93449 3750 ft 147 kts 214°
2026-05-08 12:27 24.80472 93.92873 3522 ft 145 kts 212°
2026-05-08 12:27 24.79557 93.92413 3269 ft 145 kts 208°
2026-05-08 12:27 24.78708 93.91822 3037 ft 142 kts 218°
2026-05-08 12:27 24.77893 93.91192 2817 ft 144 kts 216°
2026-05-08 12:28 24.77063 93.90557 2622 ft 145 kts 217°
2026-05-08 12:28 24.76292 93.89968 2550 ft 116 kts 214°
2026-05-08 12:28 24.75801 93.89597 2551 ft 60 kts 214°
2026-05-08 12:28 24.75479 93.89354 2548 ft 50 kts 215°
2026-05-08 12:29 24.75203 93.89149 2546 ft 46 kts 214°
2026-05-08 12:29 24.75080 93.89054 2546 ft 20 kts 216°
2026-05-08 12:29 24.75014 93.88965 2547 ft 13 kts 228°
2026-05-08 12:29 24.75002 93.88989 2547 ft 7 kts 37°
2026-05-08 12:30 24.75068 93.89045 2546 ft 11 kts 37°
2026-05-08 12:30 24.75112 93.89082 2546 ft 13 kts 37°
2026-05-08 12:30 24.75195 93.89144 2546 ft 15 kts 32°
2026-05-08 12:30 24.75292 93.89213 2547 ft 18 kts 33°
2026-05-08 12:31 24.75404 93.89296 2547 ft 21 kts 33°
2026-05-08 12:31 24.75526 93.89391 2549 ft 22 kts 35°
2026-05-08 12:31 24.75661 93.89492 2549 ft 24 kts 34°
2026-05-08 12:31 24.75782 93.89585 2551 ft 22 kts 35°
2026-05-08 12:32 24.75907 93.89676 2550 ft 22 kts 32°
2026-05-08 12:32 24.75998 93.89743 2547 ft 0 kts 34°
2026-05-08 12:32 24.76008 93.89750 2547 ft 3 kts 34°
2026-05-08 12:32 24.76031 93.89768 2549 ft 5 kts 36°
2026-05-08 12:33 24.76069 93.89794 2549 ft 8 kts 19°
2026-05-08 12:33 24.76116 93.89767 2551 ft 4 kts 309°
2026-05-08 12:33 24.76138 93.89736 2551 ft 6 kts 304°
2026-05-08 12:33 24.76168 93.89686 2550 ft 9 kts 302°
2026-05-08 12:34 24.76190 93.89652 2551 ft 0 kts 312°